{"data":{"norad_id":38740,"intl_designator":"2012-043A","name":"INTELSAT 20 (IS-20)","alt_names":[],"object_type":"PAYLOAD","status":"ACTIVE","operator":null,"country":"ITSO","launch_date":"2012-08-02","launch_site_code":"FRGUI","launch_vehicle":null,"mission":null,"orbit_class":"UNKNOWN","rcs_meters":1.2308,"size_class":null,"mass_kg":null,"dimensions":null,"purposes":["comms"],"wikipedia_slug":null,"has_3d_model":false,"image_url":null,"decayed_at":null,"tle_current":{"epoch":"2026-05-24T21:13:32.237760Z","epoch_age_seconds":92003,"freshness":"FRESH","line1":"1 38740U 12043A   26144.88440090 -.00000019  00000+0  00000+0 0  9991","line2":"2 38740   0.0072 134.8745 0003429  66.1559  68.3198  1.00234051 50517","mean_motion":1.00234051,"eccentricity":0.0003429,"inclination_deg":0.0072,"raan_deg":134.8745,"arg_perigee_deg":66.1559,"mean_anomaly_deg":68.3198,"bstar":0,"rev_number":5051,"period_min":1436.6375354818,"perigee_km":35782.714574591,"apogee_km":35811.638404583,"semimajor_km":42175.313489587,"source":"CELESTRAK","updated_at":"2026-05-25T13:38:14.331778Z"}}}